User: anonymous   Login
Location: Caltech
(34.1382°N, 118.1253°W)
Time: 00:51:53
(UTC-07:00)
Language:

Iridium 75 - Orbit

View from above orbital plane
View from above orbital plane
View from above satellite
View from above satellite

Ground track
Ground track

The orbit data is extracted from the following two-line orbital elements,

1 25346U 98032E   15241.23570080  .00000291  00000-0  96916-4 0  9997
2 25346 086.4000 139.1674 0002173 081.7552 029.8369 14.34222917905367
Epoch (UTC): 29 August 2015 05:39:24
Eccentricity: 0.0002173
inclination: 86.4000°
perigee height: 776 km
apogee height: 779 km
right ascension of ascending node: 139.1674°
argument of perigee: 81.7552°
revolutions per day: 14.34222917
mean anomaly at epoch: 29.8369°
orbit number at epoch: 90536

The dashed part of the orbit path shows where the satellite is in the earth's shadow,  

DLR